Theta_e
321 321 321 321 321 320 320 320 320 320 319 319 316 314 314 313 308 301 298 305 311 316 312 303 302 303 304 302 301 301 296 292 292 292 294 296 296 297 297 298 300 300 301 302 310
321 320 321 320 319 319 319 319 319 319 319 318 316 313 313 312 300 297 303 313 314 315 302 300 299 301 301 299 301 300 295 293 294 294 294 294 295 295 296 296 297 298 300 303 309
321 321 320 319 319 319 319 319 319 319 318 317 314 312 312 309 297 295 308 312 313 311 303 301 300 299 297 298 296 296 294 293 293 295 293 293 294 295 295 295 299 298 300 302 306
320 320 319 318 318 318 318 318 318 318 316 315 312 313 312 303 291 298 308 310 310 306 302 298 297 296 295 294 294 292 292 292 293 292 292 292 294 294 294 297 296 297 300 303 305
320 320 319 318 318 317 317 318 318 317 314 313 313 314 304 296 293 300 306 305 304 302 298 296 295 295 293 293 293 292 292 292 292 292 293 293 292 292 293 297 296 296 298 301 304
319 319 318 318 317 316 317 317 317 317 313 313 314 312 299 293 299 300 300 302 302 300 299 298 296 296 293 292 291 292 292 291 292 292 292 291 292 291 293 295 295 294 297 299 301
319 319 318 317 316 316 316 316 317 316 312 311 311 298 296 292 299 302 301 300 301 301 298 299 299 296 295 292 293 292 289 291 292 292 291 291 290 290 295 293 293 293 295 298 299
319 318 317 316 316 315 316 315 316 312 312 312 309 298 291 298 300 299 302 300 302 302 300 299 300 297 294 296 293 290 291 288 290 291 291 291 290 293 294 293 294 294 294 295 298
318 318 316 315 315 315 315 313 311 314 311 309 300 297 290 302 296 298 300 298 299 300 301 300 298 294 295 292 292 290 291 287 288 290 290 290 291 293 293 294 295 296 296 295 296
318 317 315 315 314 315 312 312 308 306 299 298 296 296 294 292 295 296 300 299 298 298 297 297 295 293 292 293 288 287 287 286 287 288 289 290 291 295 296 293 294 294 294 294 295
318 316 313 314 314 312 304 306 302 300 294 288 288 289 291 296 297 297 298 297 297 297 292 292 292 288 286 287 287 287 286 286 287 287 286 287 287 291 293 291 292 292 292 292 293
318 313 312 313 314 306 303 298 296 296 289 291 290 290 292 294 293 296 299 293 293 291 291 294 286 287 288 288 288 287 285 285 287 286 285 285 285 289 289 289 290 291 293 292 293
313 311 311 313 309 304 299 297 300 299 292 291 290 291 291 295 291 292 296 292 289 288 288 289 286 288 287 286 286 284 284 282 282 285 283 283 287 287 288 289 290 291 292 293 292
311 310 310 311 305 301 299 301 300 299 288 288 289 291 295 294 291 295 295 292 289 287 287 287 287 286 286 283 284 284 283 282 281 283 282 282 282 286 286 288 290 290 291 292 293
309 309 308 308 302 299 299 301 299 299 281 287 289 295 294 292 291 293 294 293 287 286 287 283 284 285 284 282 284 282 283 281 279 280 279 280 281 286 287 287 288 288 288 289 292
308 309 309 304 302 300 302 300 299 288 280 286 288 289 290 289 290 292 291 294 291 288 287 284 286 285 284 284 284 284 281 280 280 281 280 272 276 283 285 284 286 288 288 289 290
307 306 303 302 297 301 301 298 287 285 285 286 286 287 285 285 287 288 286 286 286 284 284 282 282 284 285 282 284 281 281 280 278 279 278 268 276 284 285 285 285 285 287 289 290
306 304 301 300 302 302 298 290 284 281 282 286 286 285 284 284 284 285 285 284 284 283 280 282 279 282 283 282 281 279 280 280 272 275 277 269 276 282 284 285 286 287 288 289 290
307 302 300 299 301 298 294 286 286 283 285 285 284 283 282 283 283 283 284 284 284 283 284 280 278 281 282 282 281 280 281 277 272 263 274 277 280 283 284 283 285 286 287 287 288
303 300 297 298 296 296 287 285 283 285 287 286 283 281 282 281 281 281 280 284 283 284 282 279 278 277 280 282 281 280 279 278 278 272 272 275 273 282 280 281 281 283 283 284 286
302 294 298 297 295 290 285 283 281 286 287 285 282 280 280 282 280 280 280 283 285 282 283 280 280 276 279 278 279 278 278 276 278 276 275 274 279 286 285 282 279 280 282 282 283
296 287 297 294 287 281 284 280 286 286 288 286 285 283 282 280 280 280 281 283 285 285 282 282 280 277 278 279 280 279 280 280 277 273 273 273 277 285 281 279 279 280 281 283 285
291 291 295 293 286 282 282 282 285 285 285 285 283 284 283 280 279 281 282 286 285 284 283 283 278 276 275 276 278 277 278 277 276 276 273 275 278 277 277 277 279 279 280 282 283
290 286 288 288 285 283 279 279 281 286 285 285 285 285 282 278 279 279 282 285 286 285 287 285 278 276 277 276 277 275 277 277 277 276 276 276 280 280 278 277 278 279 280 281 281
287 283 282 285 285 282 282 280 280 280 285 285 282 283 281 276 278 277 282 283 284 286 284 283 277 276 276 274 273 276 275 275 272 277 276 277 277 279 279 276 277 277 279 280 280
289 286 285 282 283 282 281 281 280 281 283 282 280 282 282 278 280 278 281 282 281 283 283 281 276 273 273 274 275 273 276 275 275 276 274 276 276 279 276 274 276 278 279 278 280
289 288 287 282 282 281 281 281 281 283 284 284 284 283 280 282 283 284 285 284 284 282 281 279 276 272 272 269 269 270 273 275 277 277 277 273 278 275 275 276 277 278 279 279 280
Wind_Speed
12 13 13 13 12 12 11 12 12 10 9 7 5 5 5 5 3 2 6 5 7 12 7 3 1 2 1 3 1 1 4 4 3 5 2 2 5 2 1 2 3 1 2 4 16
12 13 13 13 13 12 13 12 11 10 9 6 3 4 4 3 3 8 2 10 9 6 2 2 4 3 3 3 1 3 3 3 3 2 1 0 2 0 3 5 5 4 4 7 16
10 12 13 13 13 13 14 13 12 11 8 4 1 2 2 1 1 3 9 12 8 3 0 0 3 1 2 1 1 2 2 2 3 2 3 2 2 2 3 6 4 5 8 11 14
10 11 12 13 14 14 14 13 13 10 6 1 1 1 1 1 1 2 12 11 6 3 1 2 2 3 3 5 1 2 2 1 2 2 2 2 5 4 5 1 3 2 3 12 16
8 9 11 13 14 14 14 13 12 8 4 1 1 1 2 3 3 4 12 7 2 2 2 2 4 3 4 4 3 2 3 2 2 1 1 3 5 6 9 6 4 1 4 10 13
8 8 10 12 14 14 15 15 11 6 3 2 2 1 1 2 3 6 8 2 5 2 2 1 2 2 6 3 0 3 3 3 2 2 1 4 2 3 1 1 1 6 6 7 10
8 8 10 11 13 14 14 13 8 4 3 2 1 1 5 4 2 7 5 2 3 1 3 2 2 1 3 5 2 4 3 2 5 5 2 4 5 7 2 3 5 3 6 6 8
8 8 9 12 12 14 14 12 6 3 2 1 1 1 4 1 1 5 6 1 4 3 4 2 3 7 3 5 3 1 2 3 4 9 2 5 1 1 1 2 2 2 3 5 8
8 8 9 12 12 13 13 9 7 2 3 2 1 1 4 1 1 4 5 3 2 3 5 3 4 4 2 3 3 3 2 1 3 5 5 3 5 3 0 5 9 8 8 7 7
7 7 10 13 13 13 11 3 5 3 3 1 2 2 3 2 3 4 3 3 3 2 2 4 4 3 3 1 2 2 2 1 2 6 5 7 14 13 8 10 13 12 10 9 9
6 6 9 13 13 10 6 1 1 2 8 4 1 2 2 5 2 5 3 1 1 5 3 4 5 5 4 4 3 3 1 2 2 5 8 4 15 18 12 8 6 6 6 6 8
3 3 10 12 11 6 3 2 2 2 6 3 2 2 1 2 1 11 4 1 5 4 1 4 5 2 1 3 4 4 1 3 2 4 5 7 19 8 5 5 6 7 8 9 10
3 4 10 12 3 4 4 3 2 1 3 2 2 2 2 3 4 8 5 2 6 5 4 5 3 2 2 6 2 5 3 2 3 9 1 14 5 5 4 5 6 6 6 9 11
5 5 11 10 2 1 3 2 2 1 4 4 2 3 2 2 4 3 4 2 4 4 5 6 3 2 4 4 3 2 1 1 3 5 3 8 3 4 5 8 13 13 13 11 12
6 3 4 5 4 2 2 3 1 2 1 3 3 3 2 3 2 7 2 4 5 4 2 3 3 4 4 3 3 4 2 3 2 2 2 5 2 3 1 8 11 15 14 14 11
8 6 5 2 2 2 3 1 2 5 3 0 3 3 2 5 3 5 3 7 3 5 12 5 2 4 3 2 3 6 2 3 2 1 2 3 5 5 5 6 8 11 14 13 12
13 11 5 1 2 4 2 1 4 2 2 1 2 3 3 4 3 6 4 5 2 4 1 1 3 2 3 2 2 2 2 1 1 0 1 1 4 3 7 9 5 11 15 14 13
10 5 7 4 3 4 1 5 1 1 3 1 1 3 2 4 3 4 3 4 4 1 4 3 3 3 5 3 2 2 1 1 3 2 2 1 5 7 4 6 10 11 12 13 16
5 2 3 6 5 2 4 3 2 3 2 5 2 2 1 1 1 1 2 3 2 1 1 4 2 1 4 3 3 3 1 2 7 2 2 1 4 3 9 2 9 12 15 15 14
2 2 3 8 4 1 5 2 2 1 1 1 3 1 4 2 2 1 2 2 4 1 1 3 2 1 1 2 5 3 5 3 1 3 5 3 6 5 11 8 4 12 12 11 12
2 3 3 5 2 5 3 2 2 2 2 1 3 3 1 2 0 2 2 0 2 4 3 4 1 3 2 6 4 4 2 3 1 2 3 3 4 4 9 10 6 6 6 6 5
2 2 3 3 5 1 2 4 2 0 1 1 2 3 3 4 3 3 3 1 1 4 4 2 2 3 2 1 2 3 2 5 4 5 1 3 8 2 6 8 5 4 4 6 5
2 1 2 3 3 2 1 2 1 2 2 2 2 0 2 4 2 2 2 1 4 3 4 6 0 1 3 2 2 5 5 3 3 1 8 4 3 4 5 4 3 2 3 5 6
2 3 4 5 2 5 5 3 2 2 2 0 2 3 4 2 1 4 5 3 3 2 4 4 3 4 4 2 3 5 6 8 5 5 5 17 6 5 7 2 1 3 5 7 7
4 2 1 2 2 2 1 4 4 5 3 1 1 4 4 4 2 4 3 3 1 2 2 2 5 3 6 5 4 7 6 10 13 12 12 15 11 6 5 6 7 8 9 10 10
4 4 1 3 1 2 1 5 6 2 5 4 4 6 6 5 4 7 8 5 4 3 5 1 2 1 5 6 6 14 14 16 18 17 15 21 31 5 4 3 5 8 8 9 9
1 2 2 1 3 3 3 4 5 5 3 2 3 4 4 3 1 3 2 3 1 5 7 5 5 2 4 4 8 12 17 19 11 8 14 16 8 4 2 6 7 8 10 10 11
Wind_Direction
5 2 354 356 353 354 347 345 344 341 342 339 342 350 1 352 109 54 49 327 315 322 329 281 134 120 133 99 45 254 219 208 201 190 105 127 209 125 355 181 201 175 350 43 144
358 356 351 351 354 353 345 344 342 335 333 328 329 350 8 337 81 61 345 334 329 328 320 173 140 152 110 103 61 232 235 205 25 27 30 172 264 210 242 190 203 194 119 126 154
348 348 349 347 346 348 344 340 339 336 333 316 320 353 2 335 186 14 339 337 331 332 75 324 124 122 111 149 65 141 263 118 107 38 334 314 242 311 243 226 228 227 175 161 171
340 343 344 340 341 341 342 338 337 336 342 320 330 355 51 159 251 318 338 334 356 119 163 129 143 139 141 163 90 182 77 13 105 38 330 319 316 258 246 26 52 24 151 169 187
331 334 336 335 334 336 339 337 329 329 329 322 333 329 189 93 52 338 332 338 57 100 63 161 166 154 154 130 136 172 143 107 92 61 41 298 269 297 268 253 240 285 192 196 202
324 330 330 327 329 335 338 336 322 316 314 303 323 165 195 145 340 330 328 335 40 87 87 6 148 141 101 83 305 87 120 105 41 25 35 307 254 314 151 18 230 225 230 223 220
322 326 330 321 330 332 330 334 326 316 307 300 339 174 62 89 350 351 358 9 357 30 100 44 95 4 128 120 114 124 149 134 39 356 2 328 234 228 269 264 280 241 234 233 226
317 327 328 324 326 327 330 340 342 327 317 313 129 166 84 33 5 10 347 39 28 43 74 54 82 92 32 119 89 114 218 203 56 1 32 312 235 126 76 276 270 243 231 247 244
321 323 327 319 324 325 330 334 348 321 343 328 246 248 106 110 41 342 0 4 345 59 58 67 61 63 112 169 137 44 167 187 148 37 319 332 293 116 149 302 288 270 274 268 263
305 318 333 322 329 325 331 343 16 14 355 215 91 149 39 8 323 338 352 351 69 113 104 42 55 95 55 274 194 143 139 155 330 14 329 291 273 285 299 294 294 296 298 295 284
289 320 328 317 322 336 14 81 211 166 41 40 25 71 14 324 282 12 0 304 8 59 68 30 76 75 54 28 49 86 83 330 67 24 319 320 296 293 324 306 327 11 24 354 328
262 345 325 314 327 25 60 68 47 46 97 10 40 66 35 334 27 19 344 105 57 75 349 65 79 38 63 53 77 53 63 19 291 18 317 334 295 341 23 16 357 353 4 359 347
129 38 317 314 321 44 63 94 332 314 82 31 29 34 332 339 66 353 0 75 79 53 33 87 79 322 159 53 104 52 55 31 316 325 87 321 263 40 47 39 33 32 10 13 7
75 40 322 304 237 146 66 350 319 287 82 357 2 31 341 355 66 344 13 61 62 135 70 70 10 113 101 82 337 142 45 17 354 345 327 358 297 61 17 71 50 31 24 13 12
79 354 355 23 120 71 31 330 298 245 228 17 1 315 19 47 357 33 4 40 78 84 234 68 24 44 63 37 339 92 63 62 61 83 276 25 248 86 12 19 23 26 18 13 14
83 2 250 27 63 28 324 312 240 46 246 71 310 348 46 24 40 311 49 57 117 80 54 82 63 29 33 60 39 127 107 78 108 150 165 19 340 71 28 343 338 7 14 17 16
89 63 67 28 48 333 315 234 46 169 26 277 32 25 77 16 48 15 35 47 47 116 75 31 31 15 352 191 148 161 207 300 207 83 36 23 266 11 353 5 17 44 47 45 37
97 106 70 61 341 324 258 52 155 53 216 22 56 72 68 353 40 14 108 113 67 48 123 170 204 14 2 351 353 50 293 164 274 258 345 167 227 147 80 77 72 68 51 32 33
139 61 64 2 358 312 76 78 227 183 110 159 104 108 330 258 247 92 41 122 106 344 134 146 185 24 20 338 327 151 167 60 102 59 253 297 258 324 153 121 67 49 41 30 21
92 83 46 331 347 57 76 197 136 325 293 197 194 241 195 212 212 190 216 173 134 126 265 143 133 139 284 279 51 310 123 132 87 203 244 208 282 207 197 170 45 36 24 12 1
69 71 6 346 313 51 130 148 233 227 282 215 165 145 230 184 259 196 147 138 183 128 121 138 252 132 226 201 180 153 187 58 343 294 253 260 232 206 170 127 90 45 10 330 320
94 73 7 312 56 30 113 164 180 180 255 188 100 111 181 164 155 207 220 298 205 162 147 144 131 208 209 87 302 295 262 206 217 190 231 326 262 66 121 127 78 48 6 338 337
70 55 30 287 128 103 105 96 190 209 225 190 144 69 129 167 224 207 184 77 161 188 166 172 210 252 201 170 204 237 194 177 76 26 206 228 222 118 114 126 173 356 345 337 310
70 39 350 51 11 127 150 182 193 253 272 343 134 126 144 120 356 190 188 171 191 168 146 165 171 225 255 65 95 207 205 207 199 209 207 232 221 197 181 85 297 338 338 324 317
22 103 146 6 33 82 89 138 147 198 228 189 320 226 173 146 176 220 189 163 177 187 105 192 228 237 268 236 229 242 213 197 208 218 223 271 227 238 323 346 350 330 323 321 317
130 156 123 98 80 133 334 216 187 207 177 215 212 192 181 175 212 194 175 196 191 148 168 150 235 57 273 317 288 270 250 233 228 235 255 266 274 342 46 294 287 301 300 303 301
105 58 311 356 136 174 195 183 213 162 201 343 223 149 226 258 181 38 74 48 130 170 173 166 156 167 258 350 313 272 235 219 219 212 233 245 278 104 277 309 308 295 296 288 289